This is the latest recevied weather packets stored in our database for station/object 9W2XPF-13. If no packets are shown the sender has not sent any weather packets the latest 10 day(s).
| Time | Temp. | Humidity | Pressure | Rain* | Wind** | Luminosity | Snow |
|---|---|---|---|---|---|---|---|
| 1777103402 | 33.33° C | 66% | 1006.4 hPa | 0 mm | - | - | - |
| 1777103282 | 33.33° C | 67% | 1006.4 hPa | 0 mm | - | - | - |
| 1777103162 | 33.33° C | 64% | 1006.2 hPa | 0 mm | - | - | - |
| 1777103042 | 33.33° C | 65% | 1006.2 hPa | 0 mm | - | - | - |
| 1777102922 | 33.33° C | 64% | 1006.4 hPa | 0 mm | - | - | - |
| 1777102802 | 33.33° C | 65% | 1006.3 hPa | 0 mm | - | - | - |
| 1777102682 | 33.33° C | 65% | 1006.3 hPa | 0 mm | - | - | - |
| 1777102561 | 33.33° C | 65% | 1006.4 hPa | 0 mm | - | - | - |
| 1777102442 | 33.33° C | 64% | 1006.3 hPa | 0 mm | - | - | - |
| 1777102322 | 33.33° C | 65% | 1006.5 hPa | 0 mm | - | - | - |
| 1777102202 | 33.89° C | 64% | 1006.4 hPa | 0 mm | - | - | - |
| 1777102082 | 33.33° C | 64% | 1006.5 hPa | 0 mm | - | - | - |
| 1777101962 | 33.33° C | 67% | 1006.5 hPa | 0 mm | - | - | - |
| 1777101842 | 33.33° C | 66% | 1006.3 hPa | 0 mm | - | - | - |
| 1777101722 | 33.33° C | 66% | 1006.4 hPa | 0 mm | - | - | - |
| 1777101602 | 33.33° C | 66% | 1006.6 hPa | 0 mm | - | - | - |
| 1777101482 | 33.33° C | 64% | 1006.4 hPa | 0 mm | - | - | - |
| 1777101362 | 33.33° C | 65% | 1006.5 hPa | 0 mm | - | - | - |
| 1777101242 | 33.33° C | 65% | 1006.5 hPa | 0 mm | - | - | - |
| 1777101122 | 33.89° C | 63% | 1006.5 hPa | 0 mm | - | - | - |
| 1777101002 | 33.89° C | 62% | 1006.6 hPa | 0 mm | - | - | - |
| 1777100882 | 33.33° C | 65% | 1006.4 hPa | 0 mm | - | - | - |
| 1777100762 | 33.33° C | 65% | 1006.5 hPa | 0 mm | - | - | - |
| 1777100642 | 33.33° C | 64% | 1006.5 hPa | 0 mm | - | - | - |
| 1777100522 | 33.33° C | 66% | 1006.5 hPa | 0 mm | - | - | - |
* Rain latest hour (hover to see other rain measurements)
** Current wind speed in m/s (hover to see current wind gust speed)